Regional Weather Roundup
Issued by NWS Kansas City/Pleasant Hill, MO

Home | Current Version | Previous Version | Text Only | Print | Product List | Glossary On
Versions: 1 2 3 4 5 6 7 8 9 10 11 12 13 14 15 16 17 18 19 20 21 22 23 24 25 26 27 28 29 30 31 32 33 34 35 36 37 38 39 40 41 42 43 44 45 46 47 48 49 50
000
ASUS43 KEAX 240611
RWREAX

WEATHER ROUNDUP FOR EASTERN KANSAS AND NORTHWEST MISSOURI
NATIONAL WEATHER SERVICE KANSAS CITY/PLEASANT HILL MO
100 AM CDT THU JUL 24 2014

KSZ040-057-103>105-MOZ028-029-037-043-240700-
...KANSAS CITY METROPOLITAN AREA...

CITY           SKY/WX    TMP DP  RH WIND       PRES   REMARKS
K.C. INTL      PTCLDY    71  62  73 E6        30.15S
6HR MIN TEMP:  71; 6HR MAX TEMP:  83;

K.C. DOWNTOWN  CLEAR     73  62  68 NE8       30.14R
6HR MIN TEMP:  73; 6HR MAX TEMP:  86;

LEES SUMMIT    CLEAR     71  62  73 NE7       30.15S
6HR MIN TEMP:  71; 6HR MAX TEMP:  84;

OLATHE - IXD   CLEAR     71  62  73 NE7       30.14F
6HR MIN TEMP:  71; 6HR MAX TEMP:  85;

OLATHE - OJC   CLEAR     71  62  73 NE9       30.13F
6HR MIN TEMP:  71; 6HR MAX TEMP:  84;

LAWRENCE       CLEAR     71  63  75 NE7       30.14R

$$

MOZ001>008-011>017-020>025-030>033-038>040-044>046-053-054-240700-
...NORTHERN AND CENTRAL MISSOURI...

CITY           SKY/WX    TMP DP  RH WIND       PRES   REMARKS
ST. JOSEPH     CLEAR     71  61  70 E5        30.15S
6HR MIN TEMP:  68; 6HR MAX TEMP:  83;

MOSBY          CLEAR     66  61  82 CALM      30.15R
WARRENSBURG    CLEAR     68  61  77 NE3       30.13S
WHITEMAN AFB   CLEAR     67  60  77 NE5       30.12F
6HR MIN TEMP:  67; 6HR MAX TEMP:  82;

CLINTON        CLEAR     70  64  83 CALM      30.12S
SEDALIA        CLEAR     69  61  75 NE7       30.13F
6HR MIN TEMP:  69; 6HR MAX TEMP:  83;

WARSAW         NOT AVBL
MARSHALL       CLEAR     70  64  83 CALM      30.14F
CHILLICOTHE      N/A     65  59  81 CALM      30.16S
6HR MIN TEMP:  65; 6HR MAX TEMP:  83;

MOBERLY        CLEAR     63  57  82 NE3       30.15F
KIRKSVILLE     CLEAR     60  56  86 CALM      30.16S
6HR MIN TEMP:  60; 6HR MAX TEMP:  78;


$$

MOZ041-047>049-056>058-063>065-088>090-097-240700-
...EASTERN AND SOUTHERN MISSOURI...

CITY           SKY/WX    TMP DP  RH WIND       PRES   REMARKS
ST. LOUIS INTL CLEAR     69  58  67 NE7       30.12S
6HR MIN TEMP:  69; 6HR MAX TEMP:  81;

SPIRIT OF STL  CLEAR     63  60  90 CALM      30.10F
COLUMBIA       CLEAR     65  59  81 NE6       30.13F
JEFFERSON CITY CLEAR     69  60  73 E5        30.11F
MEXICO         CLEAR     64  64 100 NE5       30.13F
HANNIBAL       CLEAR     64  55  72 CALM      30.13F
ROLLA          CLEAR     67  61  81 NE7       30.10F
OSAGE BEACH    CLEAR     70  61  73 NE6       30.11S
SPRINGFIELD    CLEAR     73  65  75 NE7       30.09S
BRANSON        FOG       72  70  94 CALM      30.09S VSB 1/4
NEVADA         CLEAR     70  64  83 N7        30.11F
JOPLIN         CLEAR     71  67  87 NE5       30.09S
WEST PLAINS    PTCLDY    69  66  90 NE12      30.08F

$$

IAZ060-094-KSZ022-034>040-054-083-096-NEZ052-066-093-240700-
...KANSAS...SOUTHEAST NEBRASKA AND IOWA...

CITY           SKY/WX    TMP DP  RH WIND       PRES   REMARKS
TOPEKA         CLEAR     72  66  81 CALM      30.14S
6HR MIN TEMP:  71; 6HR MAX TEMP:  86;

MANHATTAN      CLEAR     68  63  84 CALM      30.13F
EMPORIA        CLEAR     69  64  84 NE5       30.13S
CHANUTE        CLEAR     73  65  75 NE7       30.10F
WICHITA        PTCLDY    74  65  73 E5        30.12F
OMAHA          CLEAR     71  61  70 SE7       30.16F
LINCOLN        CLEAR     68  60  75 CALM      30.16F
FALLS CITY     CLEAR     66  64  93 E3        30.15S
LAMONI         CLEAR     66  59  78 CALM      30.17S
DES MOINES     CLEAR     70  59  68 CALM      30.16S

$$



USA.gov is the U.S. government's official web portal to all federal, state and local government web resources and services.